Orbital Elements at Epoch 2459200.5 (2020-Dec-17.0) TDB
Reference: JPL 17 (heliocentric ecliptic J2000)
Element | Value | Uncertainty (1-sigma) | Units |
e | .1477422684937834 | 5.8148e-08 | |
a | 3.195462915780317 | 3.8049e-08 | au |
q | 2.723357975715174 | 1.9987e-07 | au |
i | 14.34064937068621 | 4.644e-06 | deg |
node | 116.7924455372417 | 2.4338e-05 | deg |
peri | 272.8535007392452 | 3.1226e-05 | deg |
M | 231.3534905306871 | 2.5297e-05 | deg |
tp | 2459946.080611625802 (2023-Jan-01.58061163) | 0.00015691 | TDB |
period | 2086.407328830904 5.71 | 3.7265e-05 1.02e-07 | d yr |
n | .1725454061751797 | 3.0818e-09 | deg/d |
Q | 3.66756785584546 | 4.367e-08 | au |
|
| | Orbit Determination Parameters
Additional Information
|